DLH64C LEBB-EDDF

Flight info

Callsign DLH64C
Flight time 1h 52m
Altitude 36000
Route SSN L176 LUSEM DCT LULUT DCT ADABI DCT BOKNO DCT DIBES DCT VIQAQ DCT TSU UN858 OQQAL DCT RANUX/N0423F350 DCT VALEK DCT LUTAX UM163 DIK T856 NIVNU T847 IMCOM IMCOM1B
Aircraft A21N/M-SDE2E3FGIJ1LORWXYZ/HB1

Departure

Time 2026-05-04 16:26
Airport Bilbao Airport (LEBB)

Arrival

Time 2026-05-04 18:18
Airport Frankfurt Main Airport (EDDF)
Time Latitude Longitude Altitude Speed Heading
2026-05-04 15:31 43.30405 -2.90579 158 ft 0 kts 26°
2026-05-04 15:32 43.30438 -2.90689 158 ft 0 kts 26°
2026-05-04 16:10 43.30425 -2.90699 158 ft 2 kts 26°
2026-05-04 16:11 43.30388 -2.90732 157 ft 2 kts 74°
2026-05-04 16:11 43.30387 -2.90752 156 ft 1 kts 108°
2026-05-04 16:12 43.30391 -2.90763 156 ft 0 kts 112°
2026-05-04 16:18 43.30389 -2.90757 155 ft 3 kts 112°
2026-05-04 16:18 43.30373 -2.90705 157 ft 9 kts 112°
2026-05-04 16:19 43.30134 -2.90566 139 ft 13 kts 161°
2026-05-04 16:19 43.30025 -2.90328 136 ft 16 kts 117°
2026-05-04 16:20 43.29867 -2.89893 122 ft 18 kts 116°
2026-05-04 16:20 43.29761 -2.89594 106 ft 18 kts 116°
2026-05-04 16:21 43.29694 -2.89506 103 ft 0 kts 194°
2026-05-04 16:23 43.29670 -2.89534 103 ft 5 kts 233°
2026-05-04 16:24 43.29676 -2.89870 114 ft 7 kts 297°
2026-05-04 16:25 43.30096 -2.90998 132 ft 129 kts 295°
2026-05-04 16:26 43.32019 -2.96717 1982 ft 175 kts 296°
2026-05-04 16:26 43.35072 -2.98670 3093 ft 202 kts
2026-05-04 16:27 43.37500 -3.00530 3927 ft 227 kts 297°
2026-05-04 16:28 43.39725 -3.06392 5939 ft 237 kts 312°
2026-05-04 16:28 43.44174 -3.05886 7742 ft 263 kts 54°
2026-05-04 16:29 43.46911 -2.96820 10387 ft 275 kts 40°
2026-05-04 16:30 43.50946 -2.91148 12170 ft 287 kts 75°
2026-05-04 16:31 43.50354 -2.85832 12975 ft 301 kts 118°
2026-05-04 16:31 43.47589 -2.77824 14665 ft 315 kts 117°
2026-05-04 16:32 43.44846 -2.69530 16432 ft 323 kts 117°
2026-05-04 16:33 43.42997 -2.63895 17552 ft 328 kts 117°
2026-05-04 16:33 43.41120 -2.58177 18612 ft 334 kts 117°
2026-05-04 16:34 43.39202 -2.52344 19654 ft 338 kts 117°
2026-05-04 16:34 43.38233 -2.49402 20170 ft 341 kts 117°
2026-05-04 16:35 43.35288 -2.40476 21663 ft 347 kts 117°
2026-05-04 16:35 43.32276 -2.31388 23054 ft 353 kts 118°
2026-05-04 16:36 43.31409 -2.28222 23467 ft 359 kts 109°
2026-05-04 16:36 43.30895 -2.21311 24014 ft 378 kts 92°
2026-05-04 16:37 43.30979 -2.13995 24489 ft 392 kts 92°
2026-05-04 16:37 43.31017 -2.10272 24867 ft 394 kts 92°
2026-05-04 16:37 43.31062 -2.02724 25590 ft 399 kts 92°
2026-05-04 16:38 43.31085 -1.95106 26276 ft 404 kts 92°
2026-05-04 16:39 43.32145 -1.83692 27172 ft 419 kts 60°
2026-05-04 16:39 43.36507 -1.78519 27833 ft 423 kts 28°
2026-05-04 16:40 43.41525 -1.74342 28392 ft 430 kts 32°
2026-05-04 16:40 43.46531 -1.69893 29012 ft 434 kts 33°
2026-05-04 16:41 43.51594 -1.65328 29599 ft 438 kts 33°
2026-05-04 16:41 43.59247 -1.58392 30452 ft 445 kts 33°
2026-05-04 16:42 43.67011 -1.51333 31179 ft 451 kts 33°
2026-05-04 16:43 43.72273 -1.46537 31656 ft 455 kts 33°
2026-05-04 16:43 43.77552 -1.41713 32105 ft 459 kts 33°
2026-05-04 16:43 43.80214 -1.39276 32322 ft 461 kts 33°
2026-05-04 16:44 43.90988 -1.29391 33120 ft 469 kts 34°
2026-05-04 16:45 43.96421 -1.24387 33455 ft 472 kts 34°
2026-05-04 16:46 44.04623 -1.16812 34030 ft 474 kts 34°
2026-05-04 16:46 44.10100 -1.11740 34480 ft 474 kts 34°
2026-05-04 16:47 44.15575 -1.06663 34835 ft 476 kts 34°
2026-05-04 16:47 44.21068 -1.01554 35172 ft 478 kts 34°
2026-05-04 16:48 44.29362 -0.93820 35697 ft 480 kts 34°
2026-05-04 16:48 44.32126 -0.91234 35842 ft 481 kts 34°
2026-05-04 16:49 44.43610 -0.81658 35933 ft 483 kts 24°
2026-05-04 16:50 44.55912 -0.74166 35926 ft 483 kts 23°
2026-05-04 16:51 44.65116 -0.68552 35934 ft 482 kts 23°
2026-05-04 16:52 44.77384 -0.61014 35923 ft 482 kts 23°
2026-05-04 16:53 44.86579 -0.55334 35923 ft 482 kts 23°
2026-05-04 16:54 44.98867 -0.47715 35909 ft 483 kts 24°
2026-05-04 16:55 45.17286 -0.36227 35895 ft 483 kts 24°
2026-05-04 16:56 45.32638 -0.26588 35901 ft 483 kts 24°
2026-05-04 16:57 45.41834 -0.20786 35884 ft 484 kts 24°
2026-05-04 16:58 45.54124 -0.13000 35903 ft 484 kts 25°
2026-05-04 17:00 45.72556 -0.01255 35881 ft 485 kts 25°
2026-05-04 17:01 45.87889 0.08577 35874 ft 484 kts 25°
2026-05-04 17:02 46.00171 0.16500 35864 ft 485 kts 25°
2026-05-04 17:03 46.09359 0.22452 35870 ft 485 kts 25°
2026-05-04 17:03 46.18581 0.28445 35861 ft 484 kts 25°
2026-05-04 17:04 46.30809 0.36432 35871 ft 484 kts 25°
2026-05-04 17:05 46.43051 0.44463 35879 ft 484 kts 25°
2026-05-04 17:06 46.52214 0.50478 35883 ft 484 kts 23°
2026-05-04 17:07 46.60692 0.54641 35882 ft 484 kts 13°
2026-05-04 17:07 46.68326 0.57160 35889 ft 483 kts 12°
2026-05-04 17:08 46.78128 0.60336 35880 ft 483 kts 12°
2026-05-04 17:09 46.84669 0.62498 35883 ft 482 kts 12°
2026-05-04 17:09 46.91189 0.64661 35880 ft 482 kts 12°
2026-05-04 17:10 47.07127 0.71785 35888 ft 481 kts 26°
2026-05-04 17:11 47.12977 0.76428 35892 ft 480 kts 32°
2026-05-04 17:12 47.21488 0.84101 35893 ft 479 kts 33°
2026-05-04 17:13 47.35654 0.96841 35903 ft 478 kts 32°
2026-05-04 17:14 47.46996 1.07071 35892 ft 479 kts 32°
2026-05-04 17:15 47.55655 1.14348 35904 ft 478 kts 28°
2026-05-04 17:16 47.67376 1.23471 35904 ft 477 kts 28°
2026-05-04 17:17 47.79037 1.32630 35899 ft 475 kts 28°
2026-05-04 17:17 47.87787 1.39541 35709 ft 476 kts 28°
2026-05-04 17:18 47.90693 1.41842 35787 ft 476 kts 28°
2026-05-04 17:19 48.02355 1.51107 35889 ft 477 kts 28°
2026-05-04 17:20 48.14031 1.60431 35894 ft 477 kts 28°
2026-05-04 17:20 48.22767 1.67440 35901 ft 476 kts 29°
2026-05-04 17:21 48.34420 1.76830 36170 ft 477 kts 29°
2026-05-04 17:22 48.37319 1.79172 36035 ft 475 kts 29°
2026-05-04 17:22 48.40210 1.81513 35798 ft 476 kts 29°
2026-05-04 17:23 48.51863 1.90979 36200 ft 478 kts 29°
2026-05-04 17:23 48.57661 1.95706 35978 ft 475 kts 29°
2026-05-04 17:24 48.60563 1.98078 35748 ft 476 kts 29°
2026-05-04 17:24 48.69222 2.05458 35999 ft 475 kts 37°
2026-05-04 17:25 48.71757 2.08612 35955 ft 473 kts 45°
2026-05-04 17:25 48.75780 2.16369 35797 ft 470 kts 63°
2026-05-04 17:26 48.78211 2.25424 35876 ft 465 kts 77°
2026-05-04 17:27 48.82325 2.49043 35913 ft 466 kts 78°
2026-05-04 17:28 48.85676 2.67971 35914 ft 465 kts 78°
2026-05-04 17:29 48.90626 2.96357 35915 ft 466 kts 78°
2026-05-04 17:31 48.94713 3.20124 35915 ft 466 kts 79°
2026-05-04 17:32 48.98743 3.43893 35919 ft 466 kts 79°
2026-05-04 17:33 49.01932 3.62946 35923 ft 467 kts 79°
2026-05-04 17:34 49.05100 3.82067 35911 ft 467 kts 80°
2026-05-04 17:35 49.09013 4.05995 35918 ft 468 kts 80°
2026-05-04 17:36 49.10567 4.15595 35915 ft 469 kts 80°
2026-05-04 17:36 49.12113 4.25203 35918 ft 468 kts 80°
2026-05-04 17:37 49.13749 4.34810 35920 ft 470 kts 76°
2026-05-04 17:37 49.15993 4.44158 35916 ft 474 kts 71°
2026-05-04 17:38 49.18511 4.53381 35927 ft 475 kts 70°
2026-05-04 17:38 49.21000 4.62511 35928 ft 475 kts 71°
2026-05-04 17:39 49.24754 4.76439 35932 ft 476 kts 71°
2026-05-04 17:39 49.27234 4.85695 35931 ft 476 kts 72°
2026-05-04 17:40 49.29644 4.94741 35928 ft 476 kts 71°
2026-05-04 17:40 49.32064 5.03851 35933 ft 477 kts 71°
2026-05-04 17:41 49.34506 5.13082 35937 ft 476 kts 71°
2026-05-04 17:41 49.36974 5.22446 35932 ft 476 kts 71°
2026-05-04 17:42 49.39444 5.31864 35940 ft 476 kts 71°
2026-05-04 17:42 49.41899 5.41255 35940 ft 478 kts 71°
2026-05-04 17:43 49.44353 5.50686 35946 ft 478 kts 71°
2026-05-04 17:43 49.46794 5.60104 35952 ft 478 kts 71°
2026-05-04 17:44 49.49438 5.69506 35942 ft 482 kts 65°
2026-05-04 17:44 49.53233 5.78007 35956 ft 487 kts 51°
2026-05-04 17:45 49.58233 5.85003 35951 ft 489 kts 36°
2026-05-04 17:45 49.63928 5.90735 35957 ft 489 kts 33°
2026-05-04 17:46 49.69651 5.96348 35961 ft 489 kts 33°
2026-05-04 17:46 49.72502 5.99197 35779 ft 490 kts 33°
2026-05-04 17:46 49.75352 6.02066 35577 ft 490 kts 33°
2026-05-04 17:47 49.78198 6.04941 35373 ft 491 kts 34°
2026-05-04 17:47 49.81040 6.07824 35159 ft 492 kts 33°
2026-05-04 17:47 49.83923 6.10719 34728 ft 493 kts 32°
2026-05-04 17:47 49.86865 6.13359 34227 ft 488 kts 28°
2026-05-04 17:48 49.89871 6.15688 33698 ft 485 kts 25°
2026-05-04 17:48 49.92923 6.17834 33127 ft 483 kts 23°
2026-05-04 17:48 49.95983 6.19932 32535 ft 481 kts 24°
2026-05-04 17:48 49.99010 6.22080 31939 ft 480 kts 25°
2026-05-04 17:49 50.02009 6.24263 31341 ft 478 kts 25°
2026-05-04 17:49 50.05018 6.26476 30736 ft 476 kts 25°
2026-05-04 17:49 50.07992 6.28667 30130 ft 474 kts 25°
2026-05-04 17:49 50.10945 6.30843 29522 ft 471 kts 25°
2026-05-04 17:50 50.13883 6.33009 28918 ft 468 kts 25°
2026-05-04 17:50 50.16809 6.35164 28313 ft 465 kts 25°
2026-05-04 17:50 50.19720 6.37309 27708 ft 462 kts 24°
2026-05-04 17:50 50.22633 6.39459 27097 ft 459 kts 24°
2026-05-04 17:51 50.25491 6.41570 26555 ft 454 kts 24°
2026-05-04 17:51 50.28319 6.43662 26066 ft 449 kts 24°
2026-05-04 17:51 50.31114 6.45738 25592 ft 443 kts 25°
2026-05-04 17:51 50.33651 6.48370 25076 ft 437 kts 45°
2026-05-04 17:52 50.35362 6.52157 24688 ft 424 kts 69°
2026-05-04 17:52 50.35956 6.56503 24669 ft 400 kts 93°
2026-05-04 17:52 50.35641 6.60794 24639 ft 395 kts 103°
2026-05-04 17:52 50.35150 6.65009 24159 ft 395 kts 103°
2026-05-04 17:53 50.34728 6.69227 23603 ft 395 kts 101°
2026-05-04 17:53 50.34391 6.73482 23023 ft 396 kts 99°
2026-05-04 17:53 50.34105 6.77748 22437 ft 397 kts 99°
2026-05-04 17:53 50.33836 6.82035 21829 ft 397 kts 99°
2026-05-04 17:54 50.33323 6.86231 21212 ft 394 kts 108°
2026-05-04 17:54 50.32408 6.90268 20588 ft 390 kts 116°
2026-05-04 17:54 50.31285 6.94100 20028 ft 388 kts 118°
2026-05-04 17:54 50.30138 6.97876 19534 ft 384 kts 118°
2026-05-04 17:55 50.29007 7.01607 19072 ft 380 kts 118°
2026-05-04 17:55 50.27890 7.05318 18619 ft 376 kts 118°
2026-05-04 17:55 50.26792 7.08985 18171 ft 372 kts 117°
2026-05-04 17:55 50.25710 7.12609 17733 ft 368 kts 118°
2026-05-04 17:56 50.24632 7.16217 17294 ft 364 kts 118°
2026-05-04 17:56 50.23571 7.19759 16864 ft 360 kts 118°
2026-05-04 17:56 50.22516 7.23267 16416 ft 356 kts 118°
2026-05-04 17:56 50.21472 7.26738 16000 ft 353 kts 118°
2026-05-04 17:57 50.20438 7.30165 15573 ft 350 kts 118°
2026-05-04 17:57 50.19453 7.33612 15152 ft 349 kts 115°
2026-05-04 17:57 50.18593 7.37131 14729 ft 347 kts 113°
2026-05-04 17:57 50.17829 7.40692 14374 ft 343 kts 105°
2026-05-04 17:58 50.17462 7.44318 14126 ft 337 kts 99°
2026-05-04 17:58 50.17227 7.47902 13878 ft 332 kts 98°
2026-05-04 17:58 50.16992 7.51456 13623 ft 331 kts 98°
2026-05-04 17:58 50.16740 7.55000 13374 ft 329 kts 99°
2026-05-04 17:59 50.16472 7.58519 13124 ft 328 kts 99°
2026-05-04 17:59 50.16203 7.62028 12877 ft 327 kts 99°
2026-05-04 17:59 50.15614 7.69035 12367 ft 324 kts 101°
2026-05-04 18:00 50.15320 7.72491 11962 ft 322 kts 101°
2026-05-04 18:00 50.15026 7.75934 11512 ft 321 kts 101°
2026-05-04 18:00 50.14734 7.79361 11097 ft 319 kts 101°
2026-05-04 18:00 50.14447 7.82741 10773 ft 315 kts 100°
2026-05-04 18:01 50.14161 7.86089 10394 ft 311 kts 100°
2026-05-04 18:01 50.13883 7.89349 10214 ft 301 kts 101°
2026-05-04 18:01 50.13614 7.92510 9938 ft 296 kts 101°
2026-05-04 18:02 50.13091 7.98556 9194 ft 292 kts 100°
2026-05-04 18:02 50.12838 8.01460 8953 ft 289 kts 100°
2026-05-04 18:02 50.12568 8.04567 8948 ft 291 kts 100°
2026-05-04 18:02 50.12319 8.07422 8956 ft 292 kts 100°
2026-05-04 18:03 50.12065 8.10316 8940 ft 292 kts 100°
2026-05-04 18:03 50.11810 8.13233 8949 ft 292 kts 100°
2026-05-04 18:03 50.11549 8.16205 8956 ft 292 kts 100°
2026-05-04 18:03 50.11284 8.19207 8947 ft 292 kts 100°
2026-05-04 18:04 50.11018 8.22214 8952 ft 292 kts 100°
2026-05-04 18:04 50.10750 8.25224 8957 ft 292 kts 100°
2026-05-04 18:04 50.10187 8.31526 8958 ft 292 kts 100°
2026-05-04 18:05 50.09987 8.34615 8958 ft 293 kts 94°
2026-05-04 18:05 50.10061 8.37679 8959 ft 295 kts 85°
2026-05-04 18:05 50.10425 8.40701 8960 ft 297 kts 76°
2026-05-04 18:05 50.11041 8.43620 8962 ft 297 kts 71°
2026-05-04 18:06 50.12440 8.49290 8560 ft 293 kts 70°
2026-05-04 18:06 50.13175 8.52272 8153 ft 292 kts 70°
2026-05-04 18:06 50.13872 8.55137 7797 ft 289 kts 70°
2026-05-04 18:07 50.14547 8.57947 7446 ft 287 kts 70°
2026-05-04 18:07 50.15235 8.60832 7092 ft 285 kts 70°
2026-05-04 18:07 50.15908 8.63657 6748 ft 282 kts 70°
2026-05-04 18:07 50.16577 8.66470 6393 ft 280 kts 71°
2026-05-04 18:08 50.17241 8.69274 6061 ft 277 kts 71°
2026-05-04 18:08 50.17904 8.72070 5709 ft 275 kts 70°
2026-05-04 18:08 50.18562 8.74845 5322 ft 274 kts 70°
2026-05-04 18:08 50.19214 8.77597 5009 ft 271 kts 70°
2026-05-04 18:09 50.20512 8.83099 4957 ft 273 kts 70°
2026-05-04 18:09 50.21813 8.88635 4951 ft 274 kts 70°
2026-05-04 18:10 50.22467 8.91443 4951 ft 274 kts 71°
2026-05-04 18:10 50.22732 8.94341 4938 ft 274 kts 96°
2026-05-04 18:10 50.22120 8.97109 4944 ft 273 kts 124°
2026-05-04 18:10 50.20767 8.99104 4941 ft 265 kts 152°
2026-05-04 18:11 50.19091 8.99811 4932 ft 246 kts 182°
2026-05-04 18:11 50.17517 8.99143 4936 ft 236 kts 212°
2026-05-04 18:11 50.16237 8.97553 4951 ft 235 kts 226°
2026-05-04 18:11 50.15143 8.95685 4952 ft 234 kts 231°
2026-05-04 18:12 50.14232 8.93640 4948 ft 234 kts 242°
2026-05-04 18:12 50.13576 8.91391 4948 ft 234 kts 250°
2026-05-04 18:12 50.13082 8.89052 4953 ft 234 kts 252°
2026-05-04 18:12 50.12595 8.86706 4911 ft 234 kts 251°
2026-05-04 18:13 50.12076 8.84373 4692 ft 234 kts 250°
2026-05-04 18:13 50.11521 8.82022 4363 ft 234 kts 250°
2026-05-04 18:13 50.10382 8.77365 3715 ft 233 kts 250°
2026-05-04 18:14 50.09824 8.75095 3400 ft 232 kts 250°
2026-05-04 18:14 50.09269 8.72823 3085 ft 231 kts 251°
2026-05-04 18:14 50.08724 8.70582 2777 ft 228 kts 251°
2026-05-04 18:15 50.07704 8.66373 2248 ft 200 kts 252°
2026-05-04 18:15 50.06829 8.62745 1734 ft 172 kts 252°
2026-05-04 18:15 50.06451 8.61171 1480 ft 159 kts 252°
2026-05-04 18:16 50.06109 8.59748 1259 ft 145 kts 252°
2026-05-04 18:16 50.05814 8.58524 1086 ft 138 kts 253°
2026-05-04 18:16 50.05525 8.57319 940 ft 137 kts 253°
2026-05-04 18:17 50.04923 8.54798 606 ft 136 kts 251°
2026-05-04 18:17 50.04607 8.53506 422 ft 134 kts 251°
2026-05-04 18:17 50.04122 8.51396 358 ft 55 kts 248°
2026-05-04 18:18 50.03989 8.51039 355 ft 23 kts 232°
2026-05-04 18:18 50.03904 8.50899 352 ft 12 kts 218°
2026-05-04 18:18 50.03828 8.50821 351 ft 12 kts 178°
2026-05-04 18:18 50.03794 8.50912 353 ft 10 kts 99°
2026-05-04 18:19 50.03814 8.51106 354 ft 10 kts 67°
2026-05-04 18:19 50.03841 8.51206 355 ft 12 kts 67°
2026-05-04 18:19 50.03876 8.51330 355 ft 16 kts 67°
2026-05-04 18:20 50.03920 8.51505 356 ft 20 kts 68°
2026-05-04 18:20 50.03973 8.51726 354 ft 25 kts 70°
2026-05-04 18:20 50.04028 8.51948 352 ft 28 kts 68°
2026-05-04 18:20 50.04086 8.52185 353 ft 27 kts 69°
2026-05-04 18:21 50.04140 8.52419 356 ft 28 kts 72°
2026-05-04 18:21 50.04199 8.52668 356 ft 30 kts 70°
2026-05-04 18:21 50.04264 8.52942 353 ft 33 kts 69°